Simultaneous Nadir Overpasses (SNOs) Predictions

Prediction of SNOs between AQUA and NOAA-19 Satellite Orbit:

Table of predicted SNOs for the next 14.0 days since TLE Epoch: 11/8/2013
Index Date (AQUA) Time (AQUA) Lat,Lon (AQUA) SZA (AQUA ) Date (NOAA-19) Time (NOAA-19) Lat,Lon (NOAA-19) SZA (NOAA-19 ) Distance(km) Time Diff (sec)
1 11/08/2013 20:14:28 69.63,-122.48 86.39 11/08/2013 20:13:20 69.64,-122.53 86.39 1.82 68
2 11/08/2013 21:02:39 -65.49, 49.87 97.52 11/08/2013 21:03:07 -65.49, 49.88 97.51 0.72 28
3 11/11/2013 01:02:08 79.43, 138.04 97.55 11/11/2013 01:00:55 79.08, 136.47 97.36 51.01 73
4 11/11/2013 01:47:18 -66.47, -22.19 95.99 11/11/2013 01:47:36 -66.47, -22.21 95.98 1.05 18
5 11/13/2013 06:31:50 -67.08, -93.92 94.83 11/13/2013 06:31:58 -67.08, -93.94 94.82 0.98 8
6 11/15/2013 11:16:14 -67.27,-165.22 94.08 11/15/2013 11:16:12 -67.27,-165.19 94.08 1.07 2
7 11/17/2013 16:00:46 -67.95, 122.94 92.90 11/17/2013 16:00:35 -67.95, 122.94 92.90 0.15 11
8 11/17/2013 16:47:31 58.60, -61.59 78.45 11/17/2013 16:48:44 58.63, -61.27 78.56 19.35 73
9 11/19/2013 20:45:11 -68.27, 51.48 92.09 11/19/2013 20:44:51 -68.26, 51.51 92.09 1.24 20
10 11/19/2013 21:33:30 64.37,-136.90 84.25 11/19/2013 21:34:37 64.36,-136.87 84.27 1.76 67
11 11/22/2013 01:29:42 -68.95, -20.44 90.95 11/22/2013 01:29:14 -68.96, -20.45 90.95 0.73 28




NCC Satellite Simultaneous Nadir Overpasses (SNOs) Prediction Service
